Regional Weather Roundup
Issued by NWS

Home | Current Version | Previous Version | Text Only | Print | Product List | Glossary Off
Versions: 1 2 3 4 5 6 7 8 9 10 11 12 13 14 15 16 17 18 19 20 21 22 23 24 25 26 27

000
ASUS45 KSLC 171710
RWRUT

UTAH REGIONAL WEATHER ROUNDUP
NATIONAL WEATHER SERVICE SALT LAKE CITY UT
1100 AM MDT TUE OCT 17 2017

UTZ001>011-023>025-171800-

NORTHERN UTAH

CITY           SKY/WX    TMP DP  RH WIND       PRES   REMARKS
BRIGHAM CITY   SUNNY     49  31  48 CALM      30.30F
DUGWAY         PTSUNNY   50  17  26 W1        30.30S
HILL AFB       SUNNY     53  18  24 E12       30.29S
LOGAN          SUNNY     48  24  39 NW3       30.30F
OGDEN          SUNNY     56  19  23 N8        30.29S
SALT LAKE CITY MOSUNNY   57  26  30 NW5       30.29R
TOOELE VALLEY  SUNNY     52  30  43 CALM      30.29F
WENDOVER       MOSUNNY   47  19  33 E5        30.30F
WEST JORDAN    SUNNY     56  24  29 S6        30.29S

$$

UTZ011>015-024>027-171800-

CENTRAL/NORTHEAST UTAH

CITY           SKY/WX    TMP DP  RH WIND       PRES   REMARKS
PROVO AIRPORT  SUNNY     49  32  52 W5        30.32S
MOAB/CANYONLAN SUNNY     58  13  17 CALM      30.34F
DELTA          MOSUNNY   50  18  27 CALM      30.31F
PRICE          SUNNY     55   8  15 SE3       30.38F
ROOSEVELT      SUNNY     50  19  29 E3        30.39F
VERNAL         SUNNY     52  16  24 CALM      30.37F

$$

UTZ013>016-019>022-027-171800-

SOUTHERN UTAH

CITY           SKY/WX    TMP DP  RH WIND       PRES   REMARKS
BRYCE CANYON   SUNNY     59  -1   9 CALM      30.45F
CEDAR CITY     SUNNY     58  13  17 VRB3      30.32S
MILFORD        SUNNY     51  13  21 S8        30.31F
ST GEORGE      SUNNY     59  12  15 CALM      30.25F
HANKSVILLE     SUNNY     50  12  22 SW3       30.39S
BLANDING         N/A     58   8  13 SE3       30.46S

$$

REGIONAL REPORTS     COLORADO/ARIZONA

CITY           SKY/WX    TMP DP  RH WIND       PRES   REMARKS
CRAIG, CO      SUNNY     51  21  30 CALM      30.39F
GRAND JUNCTION SUNNY     54  15  21 S6        30.37F
RIFLE, CO      SUNNY     47  18  31 CALM      30.41F
MONTROSE, CO   SUNNY     53  16  23 NW5       30.41F
CORTEZ, CO     CLOUDY    58  16  19 S5        30.38F
COLORADO CITY    N/A     70  14  11 S3        30.32F
PAGE, AZ       SUNNY     57  13  17 VRB5      30.34S
GRAND CANYON   SUNNY     70  21  15 CALM      30.40F
KINGMAN, AZ    SUNNY     74  16  11 N6        30.20F
FLAGSTAFF, AZ  SUNNY     66  28  24 CALM      30.42F

$$

REGIONAL REPORTS    NEVADA/IDAHO/WYOMING

CITY           SKY/WX    TMP DP  RH WIND       PRES   REMARKS
LAS VEGAS, NV  MOSUNNY   71  14  11 E3        30.16S
ELY, NY        MOSUNNY   56   6  13 CALM      30.33F
ELKO, NV       MOSUNNY   44  16  32 CALM      30.29F
POCATELLO, ID  SUNNY     49  28  44 N8        30.25F
BURLEY, ID     SUNNY     49  28  44 NE6       30.21F
FORT BRIDGER,    N/A     60  12  15 NW5       30.38S
EVANSTON, WY   SUNNY     56  10  16 SW9       30.36F
ROCK SPRINGS,  SUNNY     53   3  13 W8        30.35F
KEMMERER, WY   SUNNY     54  14  20 CALM      30.36F

$$




USA.gov is the U.S. government's official web portal to all federal, state and local government web resources and services.